Regional Weather Roundup
Issued by NWS

Home | Current Version | Previous Version | Graphics & Text | Print | Product List | Glossary Off
Versions: 1 2 3 4 5 6 7 8 9 10 11 12 13 14 15 16 17 18 19 20 21 22 23 24 25 26 27 28 29 30 31 32 33 34 35 36 37 38 39 40 41 42 43 44 45 46 47 48 49 50

000
ASUS43 KTOP 300359
RWRKS

WEATHER ROUNDUP FOR KANSAS
NATIONAL WEATHER SERVICE GOODLAND KS
1100 PM CDT WED JUL 29 2015

NOTE:  "FAIR" INDICATES FEW OR NO CLOUDS BELOW 12,000 FEET WITH NO
SIGNIFICANT WEATHER AND/OR OBSTRUCTIONS TO VISIBILITY.

KSZ001>006-013>018-027>032-041>047-300500-
NORTHWEST KANSAS

CITY           SKY/WX    TMP DP  RH WIND       PRES   REMARKS
GOODLAND       CLEAR     60  51  72 SE6       30.29R
HAYS           CLEAR     72  55  56 E8        30.21R
HILL CITY      CLEAR     70  58  65 CALM      30.23R
RUSSELL        PTCLDY    68  60  75 E7        30.20R
$$

KSZ061>065-074>080-084>089-300500-
SOUTHWEST KANSAS

CITY           SKY/WX    TMP DP  RH WIND       PRES   REMARKS
DODGE CITY     PTCLDY    70  66  87 E5        30.22R
ELKHART          N/A     71  64  78 NE6         N/A
GARDEN CITY    CLEAR     70  64  81 NE7       30.24R
GREAT BEND     PTCLDY    73  66  78 E5        30.20R
LIBERAL        PTCLDY    75  63  64 E9        30.22R
$$

KSZ066>073-081>083-090>101-300500-
SOUTHEAST KANSAS

CITY           SKY/WX    TMP DP  RH WIND       PRES   REMARKS
CHANUTE        CLOUDY    79  68  69 NE8       30.15R
COFFEYVILLE    PTCLDY    80  70  71 NE8       30.11R
HUTCHINSON     PTCLDY    74  69  85 E6        30.18R
MEDICINE LODGE   N/A     74  70  87 NE10      30.16R
PARSONS        MOCLDY    80  68  66 VRB5      30.14R
WICHITA INTL   PTCLDY    76  70  82 NE9       30.16R
WICHITA JABRA  PTCLDY    73  70  90 N5        30.17R
WINFIELD       PTCLDY    77  71  82 NE12      30.15R
$$

KSZ007>012-019>026-033>040-048>060-102>105-300500-
NORTHEAST KANSAS

CITY           SKY/WX    TMP DP  RH WIND       PRES   REMARKS
CONCORDIA      CLEAR     69  63  81 S3        30.19R
EMPORIA        PTCLDY    73  68  84 NE3       30.18R
LAWRENCE       PTCLDY    69  66  90 CALM      30.17R
MANHATTAN      CLEAR     69  65  86 CALM      30.17R
OLATHE IND     PTCLDY    73  66  78 CALM      30.18R
OLATHE EXE     PTCLDY    74  66  76 NE3       30.17R
SALINA         CLEAR     77  65  66 E7        30.18R
TOPEKA BILLARD CLEAR     72  69  90 CALM      30.17R
TOPEKA FORBES  CLEAR     74  67  78 N5        30.17R
$$


USA.gov is the U.S. government's official web portal to all federal, state and local government web resources and services.